1498939200.46,21750,16.94,73670.8,2.23,-5.77,-14.01,0,*4E
1498939201.68,21751,16.94,73674.3,2.23,-5.93,-14.37,0,*40
1498939202.9,21752,16.94,73682.0,2.23,-6.31,-14.75,0,*4E
1498939204.13,21753,16.94,73672.3,2.25,-6.55,-15.07,0,*4F
1498939205.36,21754,16.94,73666.3,2.23,-6.93,-15.25,0,*44
1498939206.58,21755,16.94,73666.0,2.23,-7.31,-15.49,0,*46
1498939207.83,21756,16.94,73670.8,2.23,-7.43,-15.57,0,*4F
1498939209.05,21757,16.94,73668.5,2.23,-7.65,-15.71,0,*4E
1498939210.3,21758,16.94,73674.8,2.23,-8.03,-15.89,0,*49
1498939211.55,21759,16.94,73664.5,2.21,-8.17,-15.89,0,*4F
1498939212.77,21760,16.94,73664.8,2.21,-8.41,-16.03,0,*47
1498939214.02,21761,16.94,73672.8,2.21,-8.59,-16.13,0,*4E
1498939215.3,21762,16.94,73678.8,2.21,-8.81,-16.17,0,*4C
1498939216.55,21763,16.94,73678.8,2.21,-8.97,-16.13,0,*4E
1498939217.83,21764,16.94,73678.3,2.21,-9.11,-16.27,0,*41
1498939219.06,21765,16.94,73678.5,2.21,-9.23,-16.41,0,*41
1498939220.3,21766,16.94,73676.8,2.21,-9.53,-16.45,0,*41
1498939221.53,21767,16.94,73682.0,2.21,-9.67,-16.59,0,*4A
1498939222.73,21768,16.94,73682.5,2.23,-9.79,-16.75,0,*46
1498939223.91,21769,16.94,73678.0,2.19,-9.97,-16.93,0,*46
1498939225.16,21770,16.94,73678.8,2.21,-10.05,-17.03,0,*7E
1498939226.42,21771,16.94,73674.0,2.21,-10.19,-17.21,0,*72
1498939227.65,21772,16.94,73674.3,2.19,-10.35,-17.45,0,*76
1498939228.85,21773,16.94,73674.0,2.23,-10.57,-17.69,0,*74
1498939230.14,21774,16.94,73674.0,2.21,-10.71,-17.97,0,*74
1498939231.36,21775,16.94,73672.3,2.19,-10.79,-18.17,0,*71
1498939232.59,21776,16.94,73664.5,2.21,-11.01,-18.45,0,*70
1498939233.79,21777,16.94,73664.3,2.19,-11.19,-18.73,0,*76
1498939235.03,21778,16.94,73672.5,2.19,-11.33,-18.89,0,*74
1498939236.27,21779,16.94,73674.5,2.21,-11.45,-19.17,0,*79
1498939237.53,21780,16.94,73670.3,2.21,-11.63,-19.51,0,*79
1498939238.75,21781,16.94,73666.5,2.19,-11.85,-19.71,0,*79
1498939239.97,21782,16.94,73668.3,2.19,-12.03,-19.81,0,*78
1498939241.2,21783,16.94,73672.0,2.19,-12.15,-19.95,0,*7B
1498939242.44,21784,16.94,73676.5,2.21,-12.29,-20.09,0,*77
1498939243.7,21785,16.94,73678.0,2.21,-12.53,-20.25,0,*75
1498939244.93,21786,16.94,73680.5,2.19,-12.75,-20.29,0,*75
1498939246.18,21787,16.94,73676.5,2.19,-13.01,-20.35,0,*7B
1498939247.41,21788,16.94,73672.3,2.19,-13.01,-20.29,0,*79
1498939248.62,21789,16.94,73674.0,2.19,-13.19,-20.29,0,*71
1498939249.84,21790,16.94,73678.5,2.19,-13.19,-20.15,0,*76
1498939251.08,21791,16.94,73680.0,2.17,-13.51,-20.05,0,*74
1498939252.31,21792,16.94,73674.5,2.17,-13.73,-20.05,0,*77
1498939253.53,21793,16.94,73674.3,2.17,-13.93,-19.91,0,*7F
1498939254.79,21794,16.94,73668.5,2.19,-14.01,-19.81,0,*7B
1498939256.0,21795,16.94,73668.0,2.19,-14.15,-19.71,0,*70
1498939257.2,21796,16.94,73668.3,2.19,-14.29,-19.71,0,*7C
1498939258.46,21797,16.94,73662.0,2.17,-14.51,-19.75,0,*78
1498939259.65,21798,16.94,73656.8,2.15,-14.69,-19.75,0,*7E
1498939260.87,21799,16.94,73662.3,2.19,-14.79,-19.71,0,*76
1498939262.11,21800,16.94,73662.5,2.17,-14.97,-19.71,0,*77
1498939263.36,21801,16.94,73660.5,2.15,-14.97,-19.61,0,*75
1498939264.6,21802,16.94,73666.3,2.15,-15.21,-19.61,0,*7A
1498939265.8,21803,16.94,73666.3,2.15,-15.25,-19.71,0,*7E
1498939267.0,21804,16.94,73664.3,2.15,-15.53,-19.71,0,*78
1498939268.2,21805,16.94,73664.8,2.15,-15.67,-19.71,0,*7E
1498939269.42,21806,16.94,73670.3,2.17,-15.71,-19.71,0,*78
1498939270.67,21807,16.94,73672.0,2.15,-15.81,-19.61,0,*75
1498939271.92,21808,16.94,73668.5,2.13,-15.99,-19.61,0,*75
1498939273.15,21809,16.94,73672.3,2.15,-16.09,-19.47,0,*7C
1498939274.4,21810,16.94,73674.3,2.11,-16.27,-19.41,0,*7A
1498939275.65,21811,16.94,73668.0,2.13,-16.45,-19.31,0,*7A
1498939276.86,21812,16.94,73668.8,2.11,-16.55,-19.13,0,*7A
1498939278.11,21813,16.94,73670.8,2.13,-16.65,-19.03,0,*7B
1498939279.36,21814,16.94,73666.3,2.13,-16.79,-18.89,0,*72
1498939280.59,21815,16.94,73670.3,2.13,-16.79,-18.45,0,*73
1498939281.79,21816,16.94,73674.0,2.11,-16.89,-18.25,0,*7B
1498939282.99,21817,16.94,73674.8,2.11,-16.93,-18.11,0,*76
1498939284.25,21818,16.94,73674.0,2.11,-17.03,-17.97,0,*70
1498939285.51,21819,16.94,73676.3,2.13,-17.17,-17.83,0,*73
1498939286.73,21820,16.94,73678.3,2.11,-17.31,-17.63,0,*71
1498939287.95,21821,16.94,73676.8,2.11,-17.35,-17.35,0,*77
1498939289.23,21822,16.94,73674.8,2.13,-17.45,-17.21,0,*74
1498939290.48,21823,16.94,73674.3,2.11,-17.55,-17.03,0,*76
1498939291.73,21824,16.94,73674.3,2.07,-17.55,-16.65,0,*77
1498939292.98,21825,16.94,73676.3,2.11,-17.55,-16.31,0,*70
1498939294.23,21826,16.94,73682.0,2.11,-17.55,-16.27,0,*74
1498939295.46,21827,16.94,73680.8,2.11,-17.63,-15.99,0,*76
1498939296.65,21828,16.94,73680.8,2.07,-17.73,-15.67,0,*7E
1498939297.9,21829,16.94,73682.5,2.11,-17.79,-15.43,0,*74
1498939299.11,21830,16.94,73684.3,2.07,-17.73,-15.29,0,*7D
1498939300.31,21831,16.94,73680.5,2.07,-17.73,-15.07,0,*70
1498939301.5,21832,16.94,73680.5,2.07,-17.73,-14.61,0,*72
1498939302.73,21833,16.94,73682.0,2.07,-17.69,-14.47,0,*7C
1498939303.92,21834,16.94,73686.0,2.07,-17.69,-14.29,0,*73
1498939305.18,21835,16.94,73682.8,2.05,-17.73,-13.97,0,*79
1498939306.37,21836,16.94,73686.0,2.07,-17.69,-13.69,0,*72
1498939307.56,21837,16.94,73680.3,2.07,-17.69,-13.55,0,*7C
1498939308.78,21838,16.94,73676.3,2.07,-17.69,-13.29,0,*78
1498939310.02,21839,16.94,73676.3,2.07,-17.59,-13.01,0,*70
1498939311.26,21840,16.94,73674.0,2.07,-17.63,-12.61,0,*70
1498939312.49,21841,16.94,73672.5,2.07,-17.55,-12.47,0,*70
1498939313.71,21842,16.94,73670.8,2.07,-17.49,-12.15,0,*79
1498939314.94,21843,16.94,73668.5,2.07,-17.35,-11.89,0,*75
1498939316.16,21844,16.94,73668.0,2.07,-17.35,-11.59,0,*7F
1498939317.39,21845,16.94,73664.8,2.07,-17.21,-11.19,0,*7F
1498939318.67,21846,16.94,73666.0,2.05,-17.03,-10.79,0,*79
1498939319.87,21847,16.94,73664.5,2.07,-16.79,-10.23,0,*79
1498939321.06,21848,16.94,73660.5,2.07,-16.79,-9.97,0,*41
1498939322.28,21849,16.94,73662.0,2.07,-16.59,-9.57,0,*4E
1498939323.47,21850,16.94,73660.5,2.07,-16.37,-9.23,0,*4D
1498939324.72,21851,16.94,73662.3,2.05,-16.27,-8.89,0,*4E
1498939325.91,21852,16.94,73664.0,2.07,-15.95,-8.41,0,*41
1498939327.12,21853,16.94,73666.3,2.07,-15.67,-7.91,0,*4F
1498939328.34,21854,16.94,73664.8,2.07,-15.43,-7.53,0,*40
1498939329.57,21855,16.94,73666.5,2.07,-15.01,-7.01,0,*40
1498939330.82,21856,16.94,73666.8,2.05,-14.79,-6.81,0,*46
1498939332.04,21857,16.94,73668.5,2.07,-14.55,-6.47,0,*41
1498939333.24,21858,16.88,73664.8,2.07,-14.19,-6.31,0,*47
1498939334.43,21859,16.94,73662.3,2.07,-13.93,-5.97,0,*4C
1498939335.7,21860,16.94,73660.0,2.05,-13.79,-5.81,0,*47
1498939336.96,21861,16.94,73666.0,2.05,-13.51,-5.61,0,*42
1498939338.24,21862,16.94,73674.8,2.05,-13.37,-5.31,0,*44
1498939339.49,21863,16.94,73674.8,2.05,-13.07,-5.07,0,*43
1498939340.73,21864,16.88,73660.5,2.07,-12.61,-4.73,0,*45
1498939341.95,21865,16.94,73666.3,2.07,-12.35,-4.53,0,*47
1498939343.17,21866,16.94,73670.3,2.07,-11.85,-4.09,0,*43
1498939344.39,21867,16.94,73674.8,2.07,-11.63,-3.87,0,*4B
1498939345.62,21868,16.94,73670.0,2.07,-11.37,-3.71,0,*4C
1498939346.83,21869,16.88,73668.3,2.07,-10.97,-3.47,0,*43
1498939348.05,21870,16.88,73666.3,2.07,-10.63,-3.23,0,*42
1498939349.27,21871,16.88,73668.0,2.05,-10.23,-2.99,0,*45
1498939350.45,21872,16.94,73668.3,2.07,-9.93,-2.87,0,*78
1498939351.71,21873,16.94,73670.3,2.05,-9.57,-2.67,0,*7D
1498939352.9,21874,16.88,73668.5,2.07,-9.27,-2.43,0,*79
1498939354.11,21875,16.94,73668.5,2.07,-9.11,-2.43,0,*7D
1498939355.31,21876,16.94,73670.0,2.07,-8.89,-2.35,0,*7F
1498939356.5,21877,16.94,73668.5,2.07,-8.63,-2.19,0,*74
1498939357.74,21878,16.94,73670.5,2.07,-8.51,-2.11,0,*72
1498939358.94,21879,16.94,73674.3,2.07,-8.29,-1.95,0,*73
1498939360.18,21880,16.94,73678.8,2.07,-8.07,-1.83,0,*7E
1498939361.42,21881,16.94,73672.5,2.07,-7.77,-1.83,0,*77
1498939362.61,21882,16.94,73672.0,2.07,-7.53,-1.59,0,*75
1498939363.8,21883,16.88,73670.8,2.11,-7.23,-1.51,0,*7C
1498939365.02,21884,16.94,73672.3,2.07,-7.11,-1.35,0,*7F
1498939366.23,21885,16.88,73664.3,2.07,-6.85,-1.13,0,*76
1498939367.41,21886,16.94,73668.3,2.11,-6.55,-0.81,0,*45
1498939368.63,21887,16.94,73672.5,2.11,-6.19,-0.77,0,*45
1498939369.82,21888,16.94,73674.0,2.11,-6.01,-0.53,0,*45
1498939371.04,21889,16.88,73672.5,2.11,-5.65,-0.45,0,*42
1498939372.26,21890,16.88,73676.8,2.13,-5.39,-0.41,0,*45
1498939373.47,21891,16.94,73678.0,2.11,-5.15,-0.33,0,*4D
1498939374.7,21892,16.94,73672.5,2.11,-4.93,-0.23,0,*40
1498939375.94,21893,16.94,73672.5,2.13,-4.61,-0.23,0,*4E
1498939377.14,21894,16.94,73670.0,2.11,-4.45,-0.23,0,*4D
1498939378.36,21895,16.94,73674.5,2.11,-4.21,-0.23,0,*4E
1498939379.6,21896,16.94,73674.3,2.13,-3.95,-0.23,0,*47
1498939380.8,21897,16.94,73670.3,2.11,-3.79,-0.19,0,*4F
1498939382.02,21898,16.94,73668.5,2.11,-3.67,-0.19,0,*4F
1498939383.26,21899,16.94,73668.0,2.13,-3.43,-0.19,0,*4A
1498939384.46,21900,16.94,73668.0,2.11,-3.27,-0.15,0,*47
1498939385.67,21901,16.94,73668.3,2.13,-3.03,-0.19,0,*4E
1498939386.86,21902,16.94,73668.3,2.11,-2.83,-0.15,0,*4A
1498939388.1,21903,16.94,73670.3,2.13,-2.67,-0.15,0,*43
1498939389.34,21904,16.94,73674.5,2.13,-2.51,-0.19,0,*4D
1498939390.55,21905,16.94,73670.5,2.13,-2.31,-0.19,0,*4A
1498939391.76,21906,16.94,73674.3,2.13,-2.19,-0.19,0,*43
1498939393.02,21907,16.94,73674.5,2.13,-1.91,-0.23,0,*48
1498939394.23,21908,16.94,73674.0,2.13,-1.79,-0.29,0,*4B
1498939395.44,21909,16.94,73674.0,2.13,-1.63,-0.29,0,*41
1498939396.64,21910,16.94,73672.8,2.13,-1.51,-0.29,0,*48
1498939397.87,21911,16.94,73680.0,2.15,-1.35,-0.27,0,*43
1498939399.07,21912,16.94,73676.3,2.15,-1.17,-0.37,0,*41
1498939400.3,21913,16.94,73674.8,2.17,-1.13,-0.29,0,*49
1498939401.52,21914,16.88,73674.3,2.15,-1.01,-0.37,0,*40
1498939402.7,21915,16.94,73678.8,2.15,-0.77,-0.49,0,*78
1498939403.89,21916,16.94,73676.5,2.15,-0.73,-0.53,0,*74
1498939405.06,21917,16.94,73672.5,2.15,-0.65,-0.61,0,*73
1498939406.24,21918,16.94,73672.0,2.15,-0.53,-0.73,0,*7A
1498939407.46,21919,16.94,73674.8,2.17,-0.53,-0.73,0,*79
1498939408.66,21920,16.88,73674.0,2.17,-0.49,-0.77,0,*7C
1498939409.87,21921,16.88,73668.0,2.15,-0.41,-0.85,0,*7A
1498939411.07,21922,16.88,73672.3,2.15,-0.29,-1.01,0,*4A
1498939412.3,21923,16.88,73672.3,2.17,-0.29,-1.01,0,*49
1498939413.51,21924,16.94,73674.3,2.17,-0.37,-1.17,0,*46
1498939414.72,21925,16.94,73676.5,2.17,-0.29,-1.17,0,*48
1498939415.92,21926,16.94,73678.3,2.17,-0.29,-1.25,0,*4A
1498939417.16,21927,16.94,73678.3,2.17,-0.37,-1.47,0,*40
1498939418.4,21928,16.94,73676.0,2.17,-0.41,-1.47,0,*4E
1498939419.61,21929,16.94,73678.5,2.17,-0.49,-1.51,0,*40
1498939420.79,21930,16.94,73678.3,2.19,-0.49,-1.55,0,*42
1498939422.0,21931,16.88,73674.5,2.17,-0.61,-1.75,0,*45
1498939423.21,21932,16.94,73678.5,2.17,-0.65,-1.75,0,*42
1498939424.45,21933,16.94,73674.8,2.17,-0.73,-1.87,0,*49
1498939425.69,21934,16.94,73672.5,2.17,-0.77,-1.91,0,*4D
1498939426.95,21935,16.88,73672.0,2.17,-0.85,-1.91,0,*41
1498939428.22,21936,16.88,73672.3,2.17,-0.97,-1.91,0,*41
1498939429.49,21937,16.88,73672.3,2.17,-1.01,-1.91,0,*7E
1498939430.76,21938,16.94,73674.3,2.17,-1.05,-1.87,0,*72
1498939432.0,21939,16.94,73674.8,2.19,-1.13,-1.87,0,*7A
1498939433.22,21940,16.94,73676.5,2.19,-1.21,-1.99,0,*7A
1498939434.47,21941,16.94,73668.8,2.21,-1.33,-2.03,0,*73
1498939435.71,21942,16.88,73668.0,2.19,-1.35,-1.99,0,*7D
1498939436.95,21943,16.94,73670.0,2.19,-1.35,-1.95,0,*70
1498939438.19,21944,16.94,73668.5,2.19,-1.47,-2.07,0,*7A
1498939439.44,21945,16.94,73670.3,2.19,-1.47,-2.07,0,*7B
1498939440.65,21946,16.94,73666.8,2.19,-1.55,-2.11,0,*7C
1498939441.9,21947,16.94,73670.0,2.21,-1.63,-2.07,0,*74
1498939443.09,21948,16.88,73666.3,2.19,-1.71,-2.19,0,*7C
1498939444.31,21949,16.94,73668.0,2.21,-1.67,-2.19,0,*71
1498939445.56,21950,16.88,73664.8,2.21,-1.87,-2.23,0,*7E
1498939446.77,21951,16.88,73668.5,2.19,-1.99,-2.43,0,*7D
1498939448.02,21952,16.94,73668.0,2.21,-2.07,-2.43,0,*71
1498939449.23,21953,16.88,73668.0,2.19,-2.19,-2.59,0,*7F
1498939450.45,21954,16.94,73674.8,2.19,-2.31,-2.75,0,*7C
1498939451.66,21955,16.88,73674.0,2.21,-2.31,-2.79,0,*7A
1498939452.88,21956,16.94,73672.3,2.19,-2.47,-2.95,0,*71
1498939454.1,21957,16.94,73672.0,2.19,-2.63,-2.95,0,*76
1498939455.35,21958,16.94,73672.3,2.21,-2.59,-2.95,0,*7B
1498939456.6,21959,16.94,73674.3,2.21,-2.71,-2.95,0,*70
1498939457.78,21960,16.94,73672.5,2.19,-2.87,-3.07,0,*72
1498939459.0,21961,16.88,73674.0,2.21,-2.91,-2.95,0,*75
1498939460.19,21962,16.88,73672.8,2.19,-2.99,-2.99,0,*79
1498939461.41,21963,16.94,73674.5,2.21,-3.07,-2.83,0,*7E
1498939462.62,21964,16.94,73676.5,2.19,-3.23,-2.75,0,*7D
1498939463.85,21965,16.94,73678.8,2.19,-3.35,-2.75,0,*7B
1498939465.12,21966,16.94,73680.5,2.21,-3.43,-2.55,0,*70
1498939466.37,21967,16.94,73678.0,2.19,-3.59,-2.51,0,*75
1498939467.61,21968,16.94,73676.3,2.21,-3.67,-2.31,0,*7A
1498939468.81,21969,16.88,73674.0,2.19,-3.83,-2.19,0,*70
1498939470.07,21970,16.94,73674.0,2.21,-3.83,-1.91,0,*70
1498939471.3,21971,16.88,73674.0,2.21,-3.95,-1.71,0,*78
1498939472.52,21972,16.94,73676.0,2.21,-4.09,-1.63,0,*7A
1498939473.76,21973,16.94,73672.3,2.21,-4.09,-1.43,0,*79
1498939474.95,21974,16.94,73672.5,2.19,-4.13,-1.33,0,*79
1498939476.17,21975,16.94,73674.8,2.21,-4.13,-1.21,0,*70
1498939477.41,21976,16.94,73674.3,2.21,-4.13,-1.05,0,*75
1498939478.63,21977,16.94,73672.8,2.21,-4.13,-0.81,0,*49
1498939479.85,21978,16.94,73672.0,2.21,-4.09,-0.77,0,*44
1498939481.03,21979,16.88,73666.5,2.19,-4.13,-0.73,0,*41
1498939482.25,21980,16.94,73668.0,2.21,-3.95,-0.57,0,*43
1498939483.47,21981,16.94,73668.3,2.19,-4.01,-0.57,0,*43
1498939484.7,21982,16.94,73664.0,2.21,-3.83,-0.33,0,*44
1498939485.93,21983,16.94,73666.3,2.21,-3.71,-0.29,0,*43
1498939487.2,21984,16.94,73668.5,2.21,-3.59,-0.23,0,*44
1498939488.47,21985,16.94,73668.0,2.21,-3.47,-0.23,0,*4A
1498939489.71,21986,16.88,73668.8,2.21,-3.43,-0.11,0,*4C
1498939490.93,21987,16.94,73670.3,2.21,-3.31,-0.19,0,*40
1498939492.16,21988,16.94,73670.0,2.21,-3.27,-0.11,0,*40
1498939493.38,21989,16.94,73672.3,2.21,-3.15,-0.11,0,*40
1498939494.59,21990,16.94,73668.8,2.21,-3.03,-0.03,0,*7C
1498939495.81,21991,16.94,73668.0,2.21,-2.95,-0.03,0,*73
1498939497.02,21992,16.94,73668.0,2.21,-2.79,-0.07,0,*76
1498939498.26,21993,16.94,73670.3,2.21,-2.71,-0.07,0,*7F
1498939499.49,21994,16.94,73670.8,2.21,-2.71,-0.07,0,*78
1498939500.7,21995,16.94,73668.5,2.23,-2.59,-0.03,0,*75
1498939501.88,21996,16.94,73666.3,2.23,-2.43,-0.03,0,*7D
1498939503.05,21997,16.94,73670.3,2.23,-2.35,0.01,0,*52
1498939504.22,21998,16.94,73672.0,2.23,-2.15,0.01,0,*5F
1498939505.43,21999,16.88,73670.5,2.21,-2.19,-0.03,0,*7F
1498939506.64,22000,16.94,73668.3,2.21,-2.19,-0.03,0,*75
1498939507.88,22001,16.88,73668.5,2.21,-2.07,-0.03,0,*7B
1498939509.11,22002,16.94,73668.0,2.21,-1.95,-0.07,0,*74
1498939510.29,22003,16.94,73670.8,2.23,-1.79,-0.03,0,*71
1498939511.47,22004,16.94,73666.8,2.23,-1.79,-0.03,0,*76
1498939512.65,22005,16.94,73666.8,2.23,-1.63,-0.03,0,*7C
1498939513.83,22006,16.88,73664.0,2.23,-1.63,-0.07,0,*7B
1498939515.04,22007,16.88,73664.3,2.23,-1.43,-0.03,0,*7C
1498939516.25,22008,16.94,73670.5,2.23,-1.39,-0.03,0,*7E
1498939517.46,22009,16.88,73668.8,2.23,-1.39,-0.03,0,*7F
1498939518.65,22010,16.94,73672.3,2.23,-1.33,-0.03,0,*7D
1498939519.83,22011,16.94,73674.0,2.23,-1.29,-0.03,0,*77
1498939521.02,22012,16.88,73672.5,2.23,-1.17,0.05,0,*52
1498939522.22,22013,16.94,73674.8,2.23,-1.05,0.05,0,*50
1498939523.43,22014,16.94,73672.0,2.23,-0.97,0.05,0,*6D
1498939524.62,22015,16.88,73670.5,2.23,-0.93,0.05,0,*68
1498939525.8,22016,16.88,73672.5,2.23,-0.81,0.09,0,*64
1498939526.98,22017,16.94,73672.8,2.23,-0.81,0.09,0,*65
1498939528.15,22018,16.94,73672.3,2.23,-0.69,0.09,0,*6C
1498939529.33,22019,16.94,73674.0,2.23,-0.69,0.09,0,*6D
1498939530.5,22020,16.94,73672.8,2.23,-0.69,0.05,0,*6B
1498939531.68,22021,16.94,73672.5,2.23,-0.65,0.09,0,*6A
1498939532.88,22022,16.94,73674.5,2.25,-0.53,0.09,0,*6A
1498939534.05,22023,16.94,73672.0,2.23,-0.45,0.09,0,*6A
1498939535.22,22024,16.94,73670.5,2.23,-0.33,0.05,0,*60
1498939536.45,22025,16.94,73672.0,2.25,-0.37,0.13,0,*54
1498939537.65,22026,16.94,73672.5,2.25,-0.29,0.09,0,*63
1498939538.82,22027,16.94,73670.3,2.23,-0.41,0.05,0,*66
1498939540.02,22028,16.94,73674.8,2.25,-0.29,0.09,0,*6D
1498939541.22,22029,16.94,73672.3,2.25,-0.37,0.09,0,*63
1498939542.39,22030,16.94,73674.5,2.23,-0.29,0.05,0,*6E
1498939543.56,22031,16.94,73678.5,2.23,-0.29,0.05,0,*6F
1498939544.77,22032,16.94,73674.3,2.25,-0.19,0.09,0,*65
1498939545.99,22033,16.94,73674.8,2.25,-0.19,0.13,0,*5F
1498939547.19,22034,16.94,73676.3,2.25,-0.19,0.09,0,*63
1498939548.39,22035,16.88,73674.3,2.25,-0.07,0.09,0,*5D
1498939549.58,22036,16.94,73674.3,2.25,-0.07,0.09,0,*5E
1498939550.8,22037,16.94,73674.8,2.25,-0.07,0.13,0,*64
1498939552.02,22038,16.88,73674.0,2.25,-0.03,0.13,0,*6F
1498939553.25,22039,16.94,73674.5,2.25,-0.03,0.21,0,*6F
1498939554.45,22040,16.94,73674.5,2.25,0.01,0.13,0,*4F
1498939555.67,22041,16.88,73670.8,2.25,0.01,0.21,0,*4F
1498939556.88,22042,16.94,73676.0,2.25,0.01,0.13,0,*4D
1498939558.09,22043,16.94,73674.3,2.25,0.01,0.21,0,*4D
1498939559.3,22044,16.88,73672.3,2.25,0.01,0.21,0,*4A
1498939560.52,22045,16.94,73674.8,2.25,0.01,0.21,0,*4B
1498939561.74,22046,16.94,73672.3,2.25,0.09,0.21,0,*40
1498939562.96,22047,16.94,73672.8,2.25,0.09,0.21,0,*41
1498939564.17,22048,16.94,73672.8,2.25,0.09,0.25,0,*4A
1498939565.41,22049,16.88,73668.3,2.25,0.13,0.25,0,*70
1498939566.65,22050,16.94,73672.3,2.25,0.21,0.21,0,*7D
1498939567.9,22051,16.94,73670.5,2.25,0.25,0.21,0,*78
1498939569.12,22052,16.94,73672.8,2.27,0.25,0.21,0,*79
1498939570.34,22053,16.94,73672.5,2.27,0.21,0.25,0,*78
1498939571.55,22054,16.94,73674.3,2.27,0.25,0.25,0,*7B
1498939572.77,22055,16.94,73668.5,2.27,0.33,0.21,0,*79
1498939573.99,22056,16.94,73672.8,2.27,0.33,0.21,0,*7A
1498939575.2,22057,16.94,73670.0,2.27,0.21,0.25,0,*7C
1498939576.41,22058,16.94,73674.5,2.27,0.33,0.25,0,*70
1498939577.64,22059,16.94,73674.0,2.29,0.37,0.25,0,*7B
1498939578.86,22060,16.94,73674.5,2.27,0.33,0.21,0,*7F
1498939580.1,22061,16.88,73670.5,2.29,0.37,0.21,0,*74
1498939581.32,22062,16.94,73674.8,2.27,0.25,0.21,0,*7A
1498939582.56,22063,16.94,73672.3,2.29,0.29,0.25,0,*7D
1498939583.79,22064,16.94,73672.3,2.29,0.25,0.25,0,*76
1498939585.01,22065,16.94,73674.5,2.27,0.25,0.21,0,*7D
1498939586.23,22066,16.88,73668.8,2.27,0.25,0.21,0,*7E
1498939587.45,22067,16.94,73668.8,2.27,0.25,0.21,0,*7F
1498939588.67,22068,16.94,73670.3,2.27,0.25,0.25,0,*74
1498939589.88,22069,16.88,73670.3,2.27,0.33,0.25,0,*72
1498939591.09,22070,16.94,73668.3,2.27,0.25,0.13,0,*78
1498939592.31,22071,16.88,73666.8,2.27,0.29,0.25,0,*70
1498939593.53,22072,16.88,73668.0,2.27,0.21,0.13,0,*7E
1498939594.74,22073,16.94,73666.0,2.27,0.13,0.21,0,*7F
1498939595.97,22074,16.94,73668.5,2.27,0.21,0.21,0,*79
1498939597.19,22075,16.94,73668.3,2.27,0.21,0.21,0,*78
1498939598.4,22076,16.94,73664.5,2.27,0.21,0.13,0,*7A
1498939599.62,22077,16.94,73670.3,2.27,0.25,0.13,0,*7F
1498939600.85,22078,16.94,73670.8,2.29,0.25,0.17,0,*7A
1498939602.07,22079,16.94,73674.0,2.27,0.21,0.13,0,*75
1498939603.3,22080,16.94,73674.8,2.29,0.25,0.25,0,*7C
1498939604.52,22081,16.88,73668.0,2.27,0.25,0.25,0,*73
1498939605.73,22082,16.94,73674.0,2.27,0.29,0.25,0,*7C
1498939606.97,22083,16.94,73672.5,2.29,0.29,0.25,0,*73
1498939608.18,22084,16.94,73674.3,2.27,0.33,0.21,0,*75
1498939609.4,22085,16.94,73668.5,2.27,0.29,0.25,0,*7B
1498939610.62,22086,16.88,73668.5,2.27,0.25,0.21,0,*70
1498939611.86,22087,16.94,73668.5,2.29,0.29,0.29,0,*7B
1498939613.09,22088,16.94,73670.8,2.29,0.29,0.25,0,*78
1498939614.31,22089,16.94,73668.8,2.27,0.25,0.21,0,*7F
1498939615.53,22090,16.94,73666.0,2.27,0.25,0.25,0,*73
1498939616.76,22091,16.94,73668.5,2.29,0.25,0.25,0,*7C
1498939618.0,22092,16.88,73666.8,2.29,0.25,0.25,0,*7F
1498939619.21,22093,16.94,73666.0,2.27,0.21,0.13,0,*71
1498939620.45,22094,16.94,73668.5,2.29,0.25,0.25,0,*79
1498939621.69,22095,16.94,73664.5,2.29,0.25,0.29,0,*74
1498939622.92,22096,16.94,73664.0,2.29,0.25,0.25,0,*7B
1498939624.16,22097,16.94,73664.3,2.29,0.29,0.29,0,*7A
1498939625.38,22098,16.94,73668.0,2.27,0.25,0.21,0,*7F
1498939626.62,22099,16.94,73664.8,2.29,0.29,0.29,0,*74
1498939627.83,22100,16.94,73660.8,2.27,0.33,0.25,0,*7C
1498939629.06,22101,16.94,73664.5,2.29,0.37,0.29,0,*7B
1498939630.3,22102,16.94,73666.8,2.29,0.41,0.37,0,*76
1498939631.51,22103,16.88,73662.5,2.27,0.33,0.25,0,*7F
1498939632.73,22104,16.94,73666.8,2.27,0.25,0.33,0,*78
1498939633.96,22105,16.88,73660.3,2.29,0.37,0.37,0,*70
1498939635.2,22106,16.94,73664.0,2.33,0.37,0.37,0,*78
1498939636.43,22107,16.94,73666.5,2.33,0.37,0.41,0,*78
1498939637.67,22108,16.94,73662.5,2.33,0.37,0.37,0,*76
1498939638.91,22109,16.94,73662.0,2.33,0.37,0.41,0,*76
1498939640.15,22110,16.94,73664.5,2.33,0.41,0.37,0,*7E
1498939641.39,22111,16.94,73662.3,2.33,0.37,0.37,0,*7E
1498939642.62,22112,16.94,73660.0,2.33,0.37,0.41,0,*7C
1498939643.86,22113,16.94,73660.8,2.33,0.37,0.37,0,*7C
1498939645.1,22114,16.94,73662.3,2.33,0.37,0.41,0,*7A
1498939646.31,22115,16.94,73662.5,2.35,0.41,0.51,0,*7D
1498939647.55,22116,16.94,73664.0,2.33,0.41,0.37,0,*78
1498939648.79,22117,16.88,73664.0,2.33,0.37,0.41,0,*79
1498939649.98,22118,16.94,73666.3,2.35,0.41,0.43,0,*73
1498939651.22,22119,16.94,73664.5,2.33,0.37,0.37,0,*76
1498939652.45,22120,16.94,73664.3,2.33,0.37,0.37,0,*7C
1498939653.69,22121,16.94,73662.3,2.33,0.37,0.37,0,*7D
1498939654.93,22122,16.94,73662.3,2.33,0.37,0.41,0,*7F
1498939656.17,22123,16.94,73664.3,2.33,0.37,0.37,0,*7F
1498939657.4,22124,16.94,73660.5,2.33,0.29,0.41,0,*76
1498939658.64,22125,16.94,73662.0,2.33,0.29,0.37,0,*76
1498939659.88,22126,16.94,73662.0,2.33,0.37,0.29,0,*75
1498939661.12,22127,16.94,73662.3,2.33,0.37,0.29,0,*74
1498939662.36,22128,16.94,73662.0,2.33,0.37,0.37,0,*74
1498939663.57,22129,16.94,73662.8,2.35,0.33,0.41,0,*76
1498939664.78,22130,16.94,73660.5,2.35,0.41,0.41,0,*7B
1498939665.99,22131,16.94,73660.3,2.35,0.41,0.41,0,*7A
1498939667.23,22132,16.88,73658.3,2.33,0.29,0.37,0,*70
1498939668.46,22133,16.88,73656.3,2.33,0.33,0.41,0,*7B
1498939669.67,22134,16.94,73662.3,2.35,0.33,0.41,0,*7A
1498939670.85,22135,16.88,73660.5,2.35,0.43,0.41,0,*7C
1498939672.09,22136,16.94,73662.0,2.33,0.37,0.41,0,*7A
1498939673.28,22137,16.94,73660.8,2.35,0.41,0.43,0,*7E
1498939674.49,22138,16.94,73662.5,2.35,0.37,0.41,0,*72
1498939675.68,22139,16.94,73666.3,2.35,0.41,0.43,0,*70
1498939676.89,22140,16.94,73664.8,2.35,0.41,0.41,0,*7C
1498939678.13,22141,16.94,73670.3,2.33,0.37,0.37,0,*7B
1498939679.34,22142,16.94,73668.3,2.35,0.41,0.37,0,*7F
1498939680.53,22143,16.94,73670.3,2.35,0.41,0.43,0,*7D
1498939681.77,22144,16.94,73660.0,2.33,0.41,0.37,0,*7F
1498939682.95,22145,16.94,73654.8,2.35,0.43,0.41,0,*7B
1498939684.15,22146,16.94,73658.5,2.35,0.55,0.43,0,*7D
1498939685.34,22147,16.94,73662.8,2.35,0.51,0.43,0,*78
1498939686.5,22148,16.94,73660.3,2.35,0.43,0.43,0,*74
1498939687.68,22149,16.94,73660.5,2.35,0.43,0.41,0,*77
1498939688.84,22150,16.94,73662.8,2.35,0.43,0.43,0,*7D
1498939690.05,22151,16.94,73662.0,2.35,0.51,0.41,0,*7D
1498939691.27,22152,16.94,73662.8,2.35,0.55,0.33,0,*7F
1498939692.48,22153,16.94,73668.5,2.35,0.51,0.33,0,*7A
1498939693.7,22154,16.94,73670.8,2.35,0.55,0.33,0,*79
1498939694.94,22155,16.94,73666.3,2.33,0.51,0.37,0,*7E
1498939696.16,22156,16.94,73668.3,2.35,0.55,0.33,0,*7B
1498939697.37,22157,16.88,73664.5,2.35,0.51,0.29,0,*75
1498939698.59,22158,16.94,73668.5,2.35,0.55,0.33,0,*75
1498939699.8,22159,16.94,73670.8,2.35,0.63,0.33,0,*71
1498939701.01,22160,16.94,73672.5,2.37,0.63,0.33,0,*79
1498939702.23,22161,16.94,73670.3,2.37,0.63,0.21,0,*7B
1498939703.46,22162,16.94,73672.8,2.35,0.55,0.21,0,*7F
1498939704.68,22163,16.94,73670.5,2.35,0.55,0.29,0,*76
1498939705.89,22164,16.94,73670.5,2.35,0.67,0.21,0,*78
1498939707.11,22165,16.94,73672.8,2.37,0.51,0.21,0,*7E
1498939708.34,22166,16.94,73672.3,2.37,0.51,0.21,0,*7D
1498939709.56,22167,16.94,73672.5,2.37,0.55,0.17,0,*7D
1498939710.79,22168,16.94,73672.8,2.37,0.55,0.21,0,*77
1498939712.01,22169,16.94,73672.5,2.37,0.55,0.17,0,*73
1498939713.22,22170,16.88,73672.0,2.37,0.51,0.17,0,*7F
1498939714.44,22171,16.94,73674.5,2.37,0.51,0.17,0,*7E
1498939715.66,22172,16.88,73672.8,2.37,0.51,0.17,0,*7D